Regional Weather Roundup
Issued by NWS

Home | Current Version | Previous Version | Graphics & Text | Print | Product List | Glossary On
Versions: 1 2 3 4 5 6 7 8 9 10 11 12 13 14 15 16 17 18 19 20 21 22 23 24 25 26 27 28 29 30 31 32 33 34 35 36 37 38 39 40 41 42 43 44 45 46 47 48 49 50
000
ASUS43 KMKX 251900
RWRWI

WISCONSIN REGIONAL WEATHER ROUNDUP
NATIONAL WEATHER SERVICE MILWAUKEE/SULLIVAN WI
200 PM CDT SAT OCT 25 2014

NOTE: "FAIR" INDICATES FEW OR NO CLOUDS BELOW 12,000 FEET WITH NO
SIGNIFICANT WEATHER AND/OR OBSTRUCTIONS TO VISIBILITY.

WIZ001-002-006>008-014>016-023>028-252000-
NORTHWEST WISCONSIN

CITY           SKY/WX    TMP DP  RH WIND       PRES   REMARKS
SUPERIOR ARPT  SUNNY     60  29  31 W16G28    29.92S
ASHLAND        SUNNY     60  29  30 W18G33    29.88F
HAYWARD        SUNNY     60  24  25 W12G26    29.93F
SIREN          SUNNY     60  27  28 NW17G23   29.97F
CUMBERLAND     SUNNY     59  28  31 NW16G24   29.97F
RICE LAKE      SUNNY     59  29  31 W13G22    29.98F
CHETEK         SUNNY     59  32  36 W14G21    29.97S
LADYSMITH      SUNNY     59  29  31 NW20      29.95F
EAU CLAIRE     NOT AVBL
MENOMONIE      SUNNY     61  28  28 W13       30.00S
NEW RICHMOND   SUNNY     61  27  27 W16G22    30.01F
OSCEOLA        SUNNY     61  29  29 NW15G22   30.04S
$$

WIZ003>005-009-010-017-018-252000-
NORTH CENTRAL WISCONSIN

CITY           SKY/WX    TMP DP  RH WIND       PRES   REMARKS
MANITOWISH WTR SUNNY     56  29  35 NW20      29.85F
ARBOR VITAE    SUNNY     57  28  33 W16G23    29.85F
WOODRUFF       SUNNY     57  28  33 W16G23    29.85F
RHINELANDER    SUNNY     57  27  31 W18G29    29.85S
EAGLE RIVER    SUNNY     56  24  28 W18G32    29.82S
LAND O LAKES   SUNNY     56  25  29 W14G28    29.82F
PHILLIPS       SUNNY     56  29  36 NW13G20   29.89F
TOMAHAWK       SUNNY     58  27  30 W21G28    29.89S
MEDFORD        SUNNY     58  30  35 W22       29.91F
MERRILL        SUNNY     60  29  30 NW20G25   29.88R
$$

WIZ029-030-035-036-043>047-252000-
CENTRAL WISCONSIN

CITY           SKY/WX    TMP DP  RH WIND       PRES   REMARKS
WAUSAU         SUNNY     61  28  28 W21G28    29.87S
MOSINEE        SUNNY     61  30  31 W20G28    29.90S
MARSHFIELD     SUNNY     61  30  31 NW24G31   29.92F
STEVENS POINT  SUNNY     59  31  34 W17G24    29.90S
WAUPACA        SUNNY     65  29  25 W16G23    29.88S
WAUTOMA        NOT AVBL
WISC RAPIDS    SUNNY     63  29  27 W20G25    29.93F
CAMP DOUGLAS   NOT AVBL
$$

WIZ011>013-019>022-031-037>040-048>050-252000-
NORTHEAST WISCONSIN

CITY           SKY/WX    TMP DP  RH WIND       PRES   REMARKS
ANTIGO         SUNNY     58  31  35 W18G28    29.85S
SHAWANO        SUNNY     65  28  24 NW16G26   29.83S
OCONTO         SUNNY     64  28  26 NW16G30   29.79R
STURGEON BAY   SUNNY     63  34  34 W15G23    29.78S
GREEN BAY      SUNNY     65  30  27 W21G32    29.82S
MANITOWOC      NOT AVBL
APPLETON       SUNNY     63  30  29 W22       29.86S
CLINTONVILLE   SUNNY     63  28  27 NW18      29.85R
OSHKOSH        SUNNY     63  33  32 NW14G31   29.86S
$$

WIZ032>034-041-042-053>061-252000-
SOUTHWEST WISCONSIN

CITY           SKY/WX    TMP DP  RH WIND       PRES   REMARKS
LA CROSSE      SUNNY     66  36  32 NW9       29.98F
SPARTA         SUNNY     63  28  26 W14G26    29.98S
VIROQUA        SUNNY     64  31  28 W14G21    30.00S
BOSCOBEL       SUNNY     70  30  22 NW13G18   29.99F
PRAIRIE DU CHI SUNNY     67  27  22 NW14G24   30.01F
PLATTEVILLE    SUNNY     67  34  29 W13G21    30.01F
$$

WIZ056-057-062-063-064-067-068-252000-
SOUTH CENTRAL WISCONSIN

CITY           SKY/WX    TMP DP  RH WIND       PRES   REMARKS
REEDSBURG      SUNNY     65  33  30 W15G21    29.94F
BARABOO/DELLS  SUNNY     66  26  22 W17G24    29.94S
LONE ROCK      NOT AVBL
MINERAL POINT  SUNNY     68  32  26 W15G21    29.99S
MADISON        MOSUNNY   68  28  22 NW15G25   29.93F
MIDDLETON      SUNNY     69  28  21 W16G22    29.94F
WATERTOWN      SUNNY     66  30  26 W20       29.90F
MONROE         SUNNY     66  32  28 W21G26    29.97S
JANESVILLE     SUNNY     70  30  23 NW17G23   29.93F
$$

WIZ051-052-058>065-066-070>072-252000-
SOUTHEAST WISCONSIN

CITY           SKY/WX    TMP DP  RH WIND       PRES   REMARKS
MILWAUKEE      MOSUNNY   68  27  21 W18G29    29.88F
WAUKESHA       SUNNY     64  30  27 W21G30    29.91F
MILWAUKEE/TIMM SUNNY     66  25  20 W21G26    29.89S
RACINE         SUNNY     69  32  25 NW14G20   29.91F
BURLINGTON     SUNNY     67  33  28 W15G28    29.91F
KENOSHA        SUNNY     70  36  28 W18G24    29.90F
FOND DU LAC    SUNNY     64  33  31 W21G29    29.87F
SHEBOYGAN      SUNNY     64  32  30 W17G29    29.85S
WEST BEND      SUNNY     64  27  24 W18G26    29.88S
JUNEAU         SUNNY     64  28  25 W17G23    29.91F
$$

LSZ147-162-252000-
LAKE SUPERIOR

STATION/POSITION TIME  TEMP    WIND        PRES    WAVE
                       AIR SEA DIR/SP/G            HT/PER
                 (UTC) (F)     (DEG/KT/KT) (MB)    (FT/S)
W MID LAKE BUOY  1750   49 46  240/ 19/ 23 1008.3F   6/ 6
DEVILS ISLAND    1800   51     250/ 22/ 25 1010.5F
PORT WING        1800   54     250/ 14/ 19 1012.2F
SAXON HARBOR     1800   57     270/  9/ 17 1011.2F
$$

LMZ867-665-643>646-252000-
LAKE MICHIGAN

STATION/POSITION TIME  TEMP    WIND        PRES    WAVE
                       AIR SEA DIR/SP/G            HT/PER
                 (UTC) (F)     (DEG/KT/KT) (MB)    (FT/S)
CHAMBERS ISLAND  1800   62     250/  5/ 13 1007.8F
N MID LAKE BUOY  1750   54 51  280/ 16/ 17 1006.4F   2/ 5
NORTHPORT PIER   1800   60     290/ 13/ 17 1007.1F
KEWAUNEE LAKESHO 1800   62     300/ 12/ 20 1008.3F
SHEBOYGAN LAKESH 1800   62 51  270/ 21/ 25 1010.6F
PORT WASHINGTON  1800   67     290/  9/ 18 1011.9
ATWATER BUOY     1800   63     270/ 17/ 19 1012.9F
MILWAUKEE LAKESH 1800   65     270/ 17/ 26   N/A
S MID LAKE BUOY  1750   58 54  270/ 12/ 14 1012.6F   2/ 4
KENOSHA   LAKESH 1800   66     260/ 15/ 18 1012.2F
$$

TC  - TEMPERATURE IN CELSIUS
VSB - VISIBILITY IN STATUTE MILES
WCI - WIND CHILL INDEX
HX  - HEAT INDEX




USA.gov is the U.S. government's official web portal to all federal, state and local government web resources and services.